Location: Great Chishall
(52.0333°N, 0.0667°E)
Time: 03:26:16
(UTC+00:00)

Daily predictions for brighter satellites

Satellite Brightness Start Highest point End
(mag) Time Altitude Azimuth Time Altitude Azimuth Time Altitude Azimuth
Cosmos 2369 Rocket 4.3 02:38:57 22° NNE 02:39:43 23° NE 02:44:10 10° E
ATLAS 2AS CENTAUR R/B 4.0 02:43:18 37° N 02:43:18 37° N 02:50:18 10° NE
CZ-4C R/B 3.9 02:49:27 29° ENE 02:49:27 29° ENE 02:52:40 10° NE
Cosmos 2344 4.5 02:49:19 43° NNW 02:49:50 43° N 02:58:54 10° ENE
ADEOS II 4.4 02:46:10 10° NNE 02:47:33 19° NNE 02:47:33 19° NNE
Cosmos 2333 Rocket 3.8 03:07:47 29° NNE 03:07:47 29° NNE 03:10:34 10° NNE
Cosmos 2322 Rocket 4.3 03:26:48 17° N 03:26:48 17° N 03:29:17 10° NNE
Cosmos 2237 Rocket 3.0 03:34:18 47° NNE 03:34:18 47° NNE 03:38:14 10° NNE
Nadezhda 3 Rocket 4.2 03:33:55 66° NE 03:33:55 66° NE 03:39:24 10° NNE
USA 215 3.2 03:32:09 10° ENE 03:38:28 83° ENE 03:38:28 83° ENE
Cosmos 2219 Rocket 3.5 03:42:44 31° N 03:42:44 31° N 03:46:08 10° NNE
ATLAS CENTAUR R/B 3.0 03:49:21 36° ENE 03:49:21 36° ENE 03:52:15 10° NE
Cosmos 2360 Rocket 4.0 03:55:08 19° NNW 03:55:08 19° NNW 03:58:09 10° NNE
NOSS 0 Rocket 4.2 03:56:43 57° NNW 03:56:43 57° NNW 04:02:09 10° NNE
Cosmos 1943 Rocket 2.5 03:55:25 52° N 03:56:28 62° NE 04:01:55 10° SE
MSX 4.0 03:51:02 10° NNE 03:56:47 70° ESE 03:57:21 65° SE
NOSS 3-1 (A) 4.0 04:01:46 59° SW 04:01:46 59° SW 04:09:29 10° SSE
COSMOS 2428 3.9 04:04:37 30° NNW 04:04:37 30° NNW 04:08:35 10° NNE
Cosmos 1535 Rocket 4.3 03:58:47 10° NNW 04:04:52 79° WNW 04:04:52 79° WNW
SL-16 R/B 2.2 04:15:01 64° S 04:15:51 77° ESE 04:21:33 10° NNE
Cosmos 1980 4.2 04:23:06 44° NW 04:23:06 44° NW 04:28:05 10° NNE
Cosmos 2369 Rocket 2.3 04:20:47 21° NNW 04:24:43 77° ENE 04:30:26 10° SE
SL-16 R/B 4.4 04:25:21 11° NNW 04:26:40 12° NNW 04:28:54 10° N
NOSS 2-1 (C) 3.9 04:30:40 51° ENE 04:30:40 51° ENE 04:33:44 10° NE
ADEOS II 4.0 04:26:52 10° N 04:28:30 16° NNW 04:28:30 16° NNW
Cosmos 921 Rocket 4.0 04:28:18 10° NNW 04:32:39 46° ENE 04:36:52 10° SE
NOSS 2-1 (D) 3.7 04:34:39 55° NE 04:34:39 55° NE 04:37:50 10° NE
IDEFIX/ARIANE 42P 3.1 04:29:58 10° N 04:34:08 42° NW 04:34:08 42° NW
CZ-4C R/B 2.6 04:34:38 45° NW 04:35:24 48° NNW 04:41:44 10° NE
Lacrosse 5 2.1 04:36:01 51° SSW 04:36:01 51° SSW 04:40:22 10° SE
PAYLOAD A 3.8 04:30:53 10° NNE 04:35:45 82° WNW 04:36:42 59° SSW
STARLINK-1169 4.5 04:37:15 37° ENE 04:37:15 37° ENE 04:39:21 10° E
ATLAS 2AS CENTAUR R/B 3.9 04:30:43 18° NW 04:36:12 40° NNE 04:43:08 10° E
Cosmos 2251 Rocket 3.4 04:36:06 59° SW 04:37:06 82° WNW 04:42:27 10° NNE
Cosmos 1934 Rocket 4.1 04:31:31 10° NNW 04:37:32 50° W 04:37:35 50° W
STARLINK-1178 4.3 04:39:15 39° ENE 04:39:15 39° ENE 04:41:26 10° E
Cosmos 2263 4.3 04:33:34 11° NNW 04:39:04 74° ENE 04:44:43 10° SE
Cosmos 1656 Rocket 4.4 04:33:40 10° NNW 04:39:14 53° NE 04:44:49 10° SE
STARLINK-1120 4.2 04:41:13 41° ENE 04:41:13 41° ENE 04:43:29 10° E
STARLINK-1131 4.1 04:43:22 44° ENE 04:43:22 44° ENE 04:45:43 10° E
COSMO-SKYMED 1 3.1 04:39:03 10° SSE 04:43:18 58° ENE 04:47:36 10° N
STARLINK-1190 3.9 04:45:30 47° ENE 04:45:30 47° ENE 04:47:57 10° E
Cosmos 2221 3.1 04:43:21 10° S 04:47:32 56° E 04:51:46 10° NNE
CZ-2C R/B 2.4 04:42:36 10° NNE 04:47:49 77° WNW 04:50:10 33° SSW
Meteor 2-3 Rocket 3.6 04:42:16 10° NNW 04:48:01 76° W 04:53:47 10° S
Cosmos 2333 Rocket 3.7 04:49:47 20° NW 04:50:17 20° NNW 04:54:27 10° NNE
Cosmos-2242 4.5 04:54:23 23° NNW 04:54:23 23° NNW 04:56:28 10° N
ADEOS Rocket 4.4 04:46:40 10° SE 04:52:41 44° ENE 04:59:21 10° N
SJ-6F 4.3 04:50:43 10° N 04:54:49 70° WNW 04:55:16 63° WSW
ALOS 3.5 04:51:08 10° NNE 04:55:36 43° E 05:00:03 10° S
Cosmos 1484 Rocket 3.4 04:51:54 10° NNE 04:55:48 58° E 04:59:43 10° S
Cosmos 1605 Rocket 4.1 04:55:45 10° NNW 05:01:44 49° W 05:07:36 10° SSW
STARLINK-1179 3.5 05:04:27 45° ENE 05:04:27 45° ENE 05:06:29 10° E
STARLINK-1176 3.4 05:05:01 48° ENE 05:05:01 48° ENE 05:07:08 10° E
STARLINK-1129 2.9 05:05:59 71° NNW 05:06:05 72° N 05:09:21 10° E
ADEOS 3.9 05:01:56 10° N 05:06:54 45° WNW 05:08:26 35° WSW
Cosmos 1455 4.3 05:09:29 14° NNW 05:09:29 14° NNW 05:10:20 10° NNW
SKYMED 3 4.5 05:03:01 10° SSE 05:07:22 86° WSW 05:11:45 10° NNW
STARLINK-1134 2.9 05:07:53 69° NNW 05:08:04 72° N 05:11:20 10° E
GEOS 3 Rocket 4.0 05:04:21 10° NE 05:09:38 65° SE 05:14:28 13° SSW
STARLINK-1135 2.9 05:10:10 66° NW 05:10:26 72° N 05:13:42 10° E
STARLINK-1141 2.9 05:12:25 63° NW 05:12:47 73° N 05:16:03 10° E
PSLV R/B 4.3 05:09:50 10° NNE 05:13:32 58° ESE 05:17:16 10° S
STARLINK-1140 3.0 05:14:30 59° NW 05:14:58 73° N 05:18:15 10° E
Spot 2 4.2 05:12:03 10° N 05:15:56 44° WNW 05:16:46 38° W
Cosmos 1153 Rocket 4.5 05:10:40 10° NNW 05:16:40 56° W 05:22:37 10° SSW
STARLINK-1156 3.0 05:16:43 56° WNW 05:17:17 73° N 05:20:33 10° E
Cosmos 2237 Rocket 3.3 05:16:08 23° WNW 05:17:22 25° NW 05:22:01 10° NNE
Aureole 2 Rocket 2.8 05:20:03 36° SSW 05:20:03 36° SSW 05:22:18 10° S
STARLINK-1148 3.0 05:18:49 52° WNW 05:19:28 73° N 05:22:45 10° E
Cosmos 407 Rocket 3.8 05:14:21 10° SSW 05:19:38 70° ESE 05:24:54 10° NNE
CZ-4B R/B 2.5 05:16:10 10° N 05:19:52 66° WNW 05:22:18 19° SSW
Meteor 1-27 4.1 05:15:07 10° SSW 05:20:40 77° WNW 05:26:16 10° N
Cosmos 1140 Rocket 4.3 05:15:50 10° S 05:20:55 54° ESE 05:26:03 10° NNE
NOSS 2-1 (E) 3.5 05:20:17 40° WNW 05:21:04 49° NW 05:25:06 10° NE
USA 215 3.5 05:15:11 10° ENE 05:21:36 60° N 05:25:50 23° WNW
STARLINK-1158 3.0 05:21:02 49° WNW 05:21:46 74° N 05:25:03 10° E
Meteor 2-10 Rocket 4.2 05:21:39 29° W 05:23:05 34° WNW 05:27:46 10° N
Meteor 1-31 Rocket 2.9 05:20:19 10° N 05:24:01 48° WNW 05:25:46 27° SW
Meteor 2-2 Rocket 4.5 05:18:02 10° S 05:24:03 82° E 05:30:07 10° NNE
METEOR-M 4.4 05:20:09 10° NNE 05:25:32 74° ESE 05:30:52 10° S
Cosmos 2219 Rocket 4.0 05:24:27 13° NW 05:26:21 15° NNW 05:29:38 10° NNE
Cosmos 1805 Rocket 3.4 05:22:10 10° NNW 05:26:32 86° WSW 05:30:52 10° S
ATLAS CENTAUR R/B 2.2 05:25:33 29° WNW 05:27:02 37° NW 05:31:06 10° NNE
Sich 1 3.2 05:24:31 10° N 05:28:49 75° ENE 05:33:07 10° SSE
SKYMED 2 3.7 05:27:12 10° S 05:31:26 51° W 05:35:42 10° NNW
Cosmos 1727 Rocket 4.0 05:27:09 10° SSW 05:33:14 58° WNW 05:39:21 10° N
Cosmos 1500 Rocket 4.0 05:29:44 10° NNW 05:33:51 37° W 05:37:55 10° SSW
Cosmos 2173 Rocket 3.9 05:30:36 10° NNW 05:36:52 66° W 05:43:01 10° S
H-2A R/B 2.9 05:33:53 10° N 05:38:01 44° WNW 05:42:15 10° SW
Cosmos 1943 Rocket 3.0 05:37:01 18° WNW 05:39:50 27° WSW 05:44:23 10° SSW
STARLINK-1153 2.7 05:38:52 34° WNW 05:39:58 79° N 05:42:54 10° E
STARLINK-1180 2.7 05:39:02 34° WNW 05:40:09 79° N 05:43:06 10° E
Cosmos 2360 Rocket 4.4 05:38:57 10° NNW 05:40:30 11° N 05:42:03 10° NNE
Cosmos 1356 Rocket 4.4 05:40:06 24° WNW 05:40:37 24° WNW 05:44:02 10° N
STARLINK-1174 2.7 05:39:30 34° WNW 05:40:37 79° N 05:43:33 10° E
STARLINK-1118 4.2 05:39:19 15° SSW 05:40:49 27° SSE 05:43:02 10° E
STARLINK-1139 2.7 05:39:43 34° WNW 05:40:51 79° NNE 05:43:47 10° E
STARLINK-1133 2.7 05:39:56 33° WNW 05:41:04 79° N 05:44:01 10° E
STARLINK-1151 2.6 05:40:10 33° WNW 05:41:19 79° N 05:44:15 10° E
STARLINK-1160 2.7 05:40:48 33° WNW 05:41:59 79° N 05:44:54 10° E
STARLINK-1161 2.7 05:41:00 32° WNW 05:42:11 80° NNE 05:45:07 10° E
STARLINK-1145 2.7 05:41:14 32° WNW 05:42:26 80° N 05:45:22 10° E
STARLINK-1172 2.7 05:41:26 32° WNW 05:42:38 80° N 05:45:35 10° E
STARLINK-1182 2.7 05:41:53 32° WNW 05:43:06 80° NNE 05:46:02 10° E
STARLINK-1164 2.7 05:42:04 31° WNW 05:43:18 80° NNE 05:46:14 10° E
STARLINK-1168 2.6 05:42:18 31° WNW 05:43:32 80° N 05:46:28 10° E
Cosmos 1190 Rocket 4.0 05:38:21 10° SSW 05:43:39 90° NW 05:49:01 10° NNE
Cosmos 614 Rocket 3.9 05:38:42 10° SSW 05:43:51 72° WNW 05:49:06 10° NNE
STARLINK-1183 2.6 05:42:57 31° WNW 05:44:12 80° N 05:47:08 10° E
STARLINK-1181 2.7 05:43:09 30° WNW 05:44:26 81° NNE 05:47:21 10° E
Okean O Rocket 2.4 05:40:12 10° NNE 05:44:33 55° ESE 05:48:49 10° S
STARLINK-1149 2.4 05:43:41 33° WNW 05:44:46 83° NNE 05:47:30 10° E
STARLINK-1196 2.7 05:43:49 30° WNW 05:45:08 81° NNE 05:48:05 10° E
STARLINK-1186 2.6 05:44:16 29° WNW 05:45:35 81° NNE 05:48:31 10° E
STARLINK-1185 2.6 05:44:28 29° WNW 05:45:48 81° N 05:48:44 10° E
Cosmos 1743 Rocket 4.4 05:42:21 10° NNW 05:45:58 27° W 05:49:35 10° SW
STARLINK-1175 2.6 05:44:40 29° WNW 05:46:00 81° N 05:48:56 10° E
STARLINK-1147 2.6 05:44:54 29° WNW 05:46:14 81° N 05:49:10 10° E
STARLINK-1146 2.7 05:45:07 29° WNW 05:46:28 82° N 05:49:25 10° E
STARLINK-1152 2.6 05:45:20 28° WNW 05:46:41 82° N 05:49:38 10° E
STARLINK-1195 2.6 05:45:33 28° WNW 05:46:55 82° NNE 05:49:52 10° E
STARLINK-1137 2.6 05:45:46 28° WNW 05:47:09 82° N 05:50:05 10° E
STARLINK-1142 2.6 05:46:00 28° WNW 05:47:22 82° N 05:50:19 10° E
STARLINK-1127 2.6 05:46:12 28° WNW 05:47:36 82° NNE 05:50:32 10° E
STARLINK-1184 2.6 05:46:25 28° WNW 05:47:48 82° N 05:50:45 10° E
STARLINK-1193 2.6 05:46:39 27° WNW 05:48:03 82° N 05:50:59 10° E
STARLINK-1194 2.6 05:46:49 27° WNW 05:48:14 82° N 05:51:10 10° E
Cosmos 1400 Rocket 3.6 05:44:31 10° S 05:48:28 55° E 05:52:29 10° NNE
Cosmos 1869 3.4 05:45:31 10° SSW 05:49:25 52° WNW 05:53:19 10° N
Cosmos 1980 Rocket 4.5 05:46:35 10° NNW 05:50:07 16° NNE 05:53:36 10° ENE
DMSP B5D1-3 4.4 05:46:08 10° S 05:51:13 75° WSW 05:56:21 10° NNW
Cosmos 2100 Rocket 4.2 05:46:23 10° NNW 05:52:20 49° W 05:58:13 10° SSW
STARLINK-1132 2.5 05:51:17 26° WNW 05:52:42 88° N 05:55:28 10° ESE
NOSS 3-4 (A) 4.3 05:46:36 10° NW 05:53:13 56° NE 06:00:32 10° ESE
NOSS 3-4 (C) 4.3 05:46:42 10° NW 05:53:19 56° NNE 06:00:37 10° ESE
Cosmos 468 Rocket 4.5 05:48:10 10° NNW 05:53:30 66° ENE 05:58:45 10° SE
STARLINK-1150 2.5 05:53:40 24° WNW 05:55:11 90° NW 05:57:58 10° ESE
STARLINK-1163 2.5 05:54:51 23° WNW 05:56:24 89° SSE 05:59:10 10° ESE
STARLINK-1162 2.9 05:55:24 20° WNW 05:57:28 86° NNE 06:00:42 10° ESE
STARLINK-1173 2.5 05:56:42 22° WNW 05:58:20 88° S 06:01:06 10° ESE
STARLINK-1177 2.5 05:56:51 22° WNW 05:58:29 88° S 06:01:16 10° ESE
STARLINK-1167 2.5 05:57:38 21° WNW 05:59:18 87° S 06:02:05 10° ESE
STARLINK-1157 2.9 05:57:18 19° WNW 05:59:27 87° NNE 06:02:40 10° ESE
Cosmos 1151 Rocket 4.3 05:55:49 10° SSE 05:59:56 45° E 06:04:06 10° NNE
SL-16 R/B 3.2 05:56:55 15° W 06:00:34 28° NW 06:05:28 10° NNE
FENGYUN 3A 3.7 05:55:14 10° N 06:00:37 62° WNW 06:05:59 10° SSW
Cosmos 676 Rocket 4.2 05:55:50 10° SSW 06:01:09 80° ESE 06:06:32 10° NNE
STARLINK-1159 2.9 05:59:16 18° WNW 06:01:30 88° NNE 06:04:43 10° ESE
STARLINK-1070 3.8 06:00:52 10° SW 06:03:39 42° SSE 06:06:28 10° E
STARLINK-1171 2.9 06:01:24 18° WNW 06:03:44 89° NE 06:06:57 10° ESE
STARLINK-1136 2.5 06:02:19 19° WNW 06:04:10 84° SSW 06:06:57 10° ESE
STARLINK-1124 3.5 06:01:29 11° SW 06:04:12 48° SSE 06:07:03 10° E
STARLINK-1066 3.7 06:01:46 10° SW 06:04:34 42° SSE 06:07:22 10° E
Meteor PRIRODA 4.5 06:01:20 10° N 06:04:35 29° WNW 06:07:49 10° SW
STARLINK-1081 3.7 06:01:59 10° SW 06:04:47 42° SSE 06:07:35 10° E
STARLINK-1069 3.7 06:02:26 10° SW 06:05:14 43° SSE 06:08:02 10° E
STARLINK-1085 3.7 06:02:40 10° SW 06:05:28 43° SSE 06:08:16 10° E
Cosmos 1238 Rocket 3.9 05:59:22 10° NNW 06:05:28 54° W 06:10:42 10° SSW
STARLINK-1086 3.7 06:02:53 10° SW 06:05:41 43° SSE 06:08:30 10° E
Cosmos 1459 Rocket 4.3 05:59:56 10° NNW 06:05:42 43° W 06:11:31 10° SSW
STARLINK-1155 2.9 06:03:22 17° WNW 06:05:45 89° SSW 06:08:58 10° ESE
STARLINK-1095 3.7 06:03:07 10° SW 06:05:55 43° SSE 06:08:43 10° E
SJ-12 4.3 06:02:02 10° N 06:05:57 43° WNW 06:09:52 10° SW
STARLINK-1077 3.7 06:03:20 10° SW 06:06:08 43° SSE 06:08:57 10° E
STARLINK-1075 3.7 06:03:33 10° SW 06:06:21 43° SSE 06:09:11 10° E
STARLINK-1093 3.7 06:03:46 10° SW 06:06:35 43° SSE 06:09:24 10° E
Cosmos 2061 Rocket 4.1 06:00:36 10° NNW 06:06:45 57° W 06:12:48 10° S
STARLINK-1074 3.7 06:03:59 10° SW 06:06:47 44° SSE 06:09:37 10° E
STARLINK-1087 3.7 06:04:13 10° SW 06:07:02 44° SSE 06:09:51 10° E
STARLINK-1088 3.7 06:04:25 10° SW 06:07:13 44° SSE 06:10:02 10° E
STARLINK-1115 3.7 06:04:39 10° SW 06:07:28 44° SSE 06:10:18 10° E
STARLINK-1076 3.7 06:04:53 10° SW 06:07:42 44° SSE 06:10:32 10° E
STARLINK-1092 3.7 06:05:07 10° SW 06:07:56 44° SSE 06:10:45 10° E
STARLINK-1166 2.9 06:05:38 16° WNW 06:08:07 88° SSW 06:11:20 10° ESE
STARLINK-1080 3.7 06:05:19 10° SW 06:08:08 44° SSE 06:10:57 10° E
Cosmos 2369 Rocket 3.3 06:03:50 10° NW 06:08:09 22° WSW 06:12:27 10° SSW
H-2A R/B 3.5 06:04:32 10° NNE 06:08:16 55° E 06:11:55 10° S
STARLINK-1090 3.6 06:05:33 10° SW 06:08:22 45° SSE 06:11:12 10° E
STARLINK-1089 3.6 06:05:47 10° SW 06:08:36 45° SSE 06:11:26 10° E
STARLINK-1107 3.6 06:05:59 10° SW 06:08:47 45° SSE 06:11:37 10° E
STARLINK-1109 3.6 06:06:13 10° SW 06:09:03 45° SSE 06:11:52 10° E
STARLINK-1091 3.6 06:06:27 10° SW 06:09:17 45° SSE 06:12:07 10° E
STARLINK-1072 3.6 06:06:40 10° SW 06:09:29 45° SSE 06:12:19 10° E
STARLINK-1096 3.6 06:06:53 10° SW 06:09:41 45° SSE 06:12:31 10° E
STARLINK-1079 3.6 06:07:07 10° SW 06:09:56 46° SSE 06:12:46 10° E
STARLINK-1116 3.6 06:07:21 10° SW 06:10:10 46° SSE 06:13:00 10° E
STARLINK-1165 2.9 06:07:41 15° WNW 06:10:16 87° S 06:13:29 10° ESE
STARLINK-1094 3.6 06:07:48 10° SW 06:10:37 46° SSE 06:13:27 10° E
Cosmos 921 Rocket 4.1 06:07:05 10° NW 06:10:41 24° W 06:14:12 10° SSW
STARLINK-1117 3.6 06:08:01 10° SW 06:10:50 46° SSE 06:13:41 10° E
STARLINK-1078 3.6 06:08:14 10° SW 06:11:03 46° SSE 06:13:53 10° E
STARLINK-1108 3.6 06:08:27 10° SW 06:11:17 46° SSE 06:14:07 10° E
Cosmos 1633 3.6 06:08:15 10° NW 06:11:17 25° W 06:14:17 10° SW
STARLINK-1071 3.6 06:08:40 10° SW 06:11:29 47° SSE 06:14:19 10° E
STARLINK-1110 3.6 06:08:54 10° SW 06:11:44 47° SSE 06:14:35 10° E
STARLINK-1122 3.6 06:09:21 10° SW 06:12:11 47° SSE 06:15:02 10° E
STARLINK-1169 2.9 06:09:45 14° WNW 06:12:24 85° SSW 06:15:38 10° ESE
STARLINK-1126 3.6 06:09:34 10° SW 06:12:24 47° SSE 06:15:15 10° E
STARLINK-1082 3.5 06:09:49 10° SW 06:12:39 47° SSE 06:15:30 10° E
STARLINK-1100 3.5 06:10:01 10° SW 06:12:51 47° SSE 06:15:41 10° E
STARLINK-1083 3.5 06:10:14 10° SW 06:13:04 48° SSE 06:15:55 10° E
STARLINK-1125 3.5 06:10:28 10° SW 06:13:18 48° SSE 06:16:09 10° E
SL-16 R/B 4.5 06:10:57 10° NNW 06:13:33 13° NNE 06:16:07 10° NE
USA 116 4.2 06:11:36 10° SSW 06:14:15 24° W 06:16:53 10° NW
STARLINK-1178 2.9 06:11:44 14° WNW 06:14:28 84° SSW 06:17:42 10° ESE
NOAA 6 4.0 06:10:27 10° NNE 06:15:39 77° WNW 06:20:49 10° SSW
Helios 1A Rocket 3.2 06:11:33 10° NNE 06:15:44 76° ESE 06:19:51 10° S
Cosmos 1603 3.9 06:10:54 10° SW 06:16:28 51° NW 06:22:01 10° NNE
STARLINK-1120 2.9 06:13:42 13° WNW 06:16:31 83° SSW 06:19:45 10° ESE
Cosmos 1725 Rocket 4.0 06:10:23 10° NNW 06:16:32 61° W 06:22:41 10° S
Lacrosse 5 3.7 06:15:15 10° W 06:17:27 13° WSW 06:19:48 10° SSW
STARLINK-1170 2.5 06:15:15 14° WNW 06:17:27 72° SSW 06:20:06 10° ESE
MOS 1-B 4.4 06:11:48 10° N 06:17:32 59° WNW 06:23:13 10° SW
STARLINK-1131 2.9 06:15:52 12° WNW 06:18:47 81° SSW 06:22:01 10° ESE
CZ-4B DEB 4.3 06:13:31 10° N 06:18:54 58° WNW 06:24:15 10° SW
COSMO-SKYMED 1 3.9 06:16:42 10° SW 06:19:50 19° W 06:23:00 10° NW
Cosmos 841 Rocket 4.3 06:14:42 10° NNW 06:19:51 54° ENE 06:24:59 10° SE
Cosmos 1633 Rocket 3.1 06:16:40 10° NNW 06:20:58 57° W 06:25:15 10° S
STARLINK-1190 3.0 06:18:01 12° WNW 06:21:01 79° SSW 06:24:15 10° ESE
Cosmos 1943 3.3 06:15:49 10° SW 06:21:21 58° NW 06:26:56 10° NNE
BREEZE-M DEB (TANK) 3.1 06:15:53 10° W 06:22:00 63° SSW 06:25:46 10° ESE
Cosmos 1862 3.9 06:18:59 10° NNW 06:22:35 34° W 06:26:10 10° SSW
Cosmos 1656 Rocket 4.4 06:17:36 10° NW 06:22:39 34° WSW 06:27:41 10° S
Cosmos 2123 Rocket 4.0 06:17:02 10° SSW 06:23:20 71° WNW 06:29:39 10° N
Cosmos 1666 Rocket 3.9 06:19:17 10° NNW 06:23:33 45° W 06:27:45 10° SSW
Cosmos 220 Rocket 4.0 06:19:24 10° NNW 06:23:40 84° ENE 06:27:52 10° SSE
Cosmos 1933 Rocket 4.0 06:19:45 10° N 06:24:07 68° ENE 06:28:26 10° SSE
CZ-2C R/B 4.1 06:22:05 10° NNW 06:25:14 16° NW 06:28:22 10° W
CZ-4C R/B 3.7 06:20:07 10° WNW 06:25:24 31° N 06:31:34 10° ENE
Cosmos 2221 3.8 06:22:21 10° WSW 06:25:29 19° WNW 06:28:39 10° NNW
STARLINK-1098 4.5 06:22:16 10° SW 06:26:11 49° SSE 06:30:06 10° ENE
CZ-4B R/B 3.1 06:21:49 10° NNE 06:27:10 73° WNW 06:32:26 10° SSW
ATLAS 2AS CENTAUR R/B 3.1 06:20:26 10° NW 06:28:15 81° NE 06:35:25 10° SE
Cosmos 1763 Rocket 3.6 06:23:11 10° NNW 06:28:33 84° WSW 06:33:52 10° SSE
Cosmos 1484 Rocket 4.3 06:27:08 10° NNW 06:29:51 18° WNW 06:32:35 10° WSW
STARLINK-1123 4.4 06:26:55 10° SW 06:30:51 51° SSE 06:34:48 10° ENE
BREEZE-M DEB (TANK) 4.3 06:29:31 10° SW 06:32:38 24° SSE 06:34:39 10° ESE
ALOS 3.1 06:28:51 10° N 06:32:54 30° WNW 06:36:56 10° WSW
STARLINK-1097 4.3 06:31:44 10° SW 06:35:42 54° SSE 06:39:39 10° ENE
Okean-O 4.3 06:32:10 10° NNE 06:36:22 40° E 06:40:32 10° SSE
ADEOS Rocket 3.5 06:32:06 10° S 06:38:10 47° W 06:44:58 10° NNW
